User: anonymous   Login
Location: Caltech
(34.1382°N, 118.1253°W)
Time: 16:05:58
(UTC-07:00)
Language:

JAS-1B - Orbit

View from above orbital plane
View from above orbital plane
View from above satellite
View from above satellite

Ground track
Ground track

The orbit data is extracted from the following two-line orbital elements,

1 20480U 90013C   14294.80147269  .00000014  00000-0  95792-4 0  8804
2 20480 099.0623 234.2060 0540883 067.0944 347.0952 12.83397438157371
Epoch (UTC): 21 October 2014 19:14:07
Eccentricity: 0.0540883
inclination: 99.0623°
perigee height: 911 km
apogee height: 1744 km
right ascension of ascending node: 234.2060°
argument of perigee: 67.0944°
revolutions per day: 12.83397438
mean anomaly at epoch: 347.0952°
orbit number at epoch: 15737

The dashed part of the orbit path shows where the satellite is in the earth's shadow,  

DLR